Multibeam Report for RR1116


Ship Name: Roger Revelle
Chief Scientist: Moum, James
Oregon State University
Source Organization: Rolling Deck to Repository
Start Date: 2011-11-06
End Date: 2011-12-11


View ISO Metadata

Visit the full NCEI Bathymetry Viewer


Multibeam Bathymetry

Cruise Details

Project: Subsurface Fluxes Beneath Large-Scale Convective Centers in the Indian Ocean
Instrument: Kongsberg EM122

Data Quality

Number of Files: 525
Number of Records: 125619
BATHYMETRY DATA Quantity Percentage
Number of Beams 54267408 100%
Number of Good Beams 48828207 89.98%
Number of Zero Beams 0 0%
Number of Flagged Beams 5439201 10.02%
AMPLITUDE DATA Quantity Percentage
Number of Beams 54267408 100%
Number of Good Beams 48828207 89.98%
Number of Zero Beams 0 0%
Number of Flagged Beams 5439201 10.02%
SIDESCAN DATA Quantity Percentage
Number of Pixels 128633856 100%
Number of Good Pixels 48473876 37.68%
Number of Zero Pixels 0 0%
Number of Flagged Pixels 80159980 62.32%

Navigation Totals

Total Time: 256.9331 hours
Total Track Length: 4764.9692 km
Average Speed: 18.546 km/hr (10.0140 knots)

Cruise Bounds

Northern Extent: 5.305761
Southern Extent: -2.042925
Western Extent: 80.49496
Eastern Extent: 91.87244

Limits

Minimum Sonar Depth 3.1063 Maximum Sonar Depth 8.0419
Minimum Altitude 1935.4921 Maximum Altitude 6898.6616
Minimum Depth 1867.2532 Maximum Depth 7598.2881
Minimum Amplitude 0 Maximum Amplitude 0
Minimum Sidescan 0 Maximum Sidescan 0

File Information

Full Resolution Bathymetry as collected (raw): 522

Files File Size Description
0000_20111107_171719_ShipName.all.mb58.gz 7.87MB Kongsberg multibeam vendor format
0001_20111107_174703_ShipName.all.mb58.gz 6.82MB Kongsberg multibeam vendor format
0002_20111107_181707_ShipName.all.mb58.gz 7.66MB Kongsberg multibeam vendor format
0003_20111107_184709_ShipName.all.mb58.gz 8.23MB Kongsberg multibeam vendor format
0004_20111107_191704_ShipName.all.mb58.gz 8.15MB Kongsberg multibeam vendor format
0005_20111107_194705_ShipName.all.mb58.gz 7.78MB Kongsberg multibeam vendor format
0006_20111107_201703_ShipName.all.mb58.gz 7.83MB Kongsberg multibeam vendor format
0007_20111107_204706_ShipName.all.mb58.gz 7.86MB Kongsberg multibeam vendor format
0008_20111107_211705_ShipName.all.mb58.gz 7.81MB Kongsberg multibeam vendor format
0009_20111107_214704_ShipName.all.mb58.gz 7.75MB Kongsberg multibeam vendor format
0010_20111107_221708_ShipName.all.mb58.gz 7.62MB Kongsberg multibeam vendor format
0011_20111107_224701_ShipName.all.mb58.gz 7.61MB Kongsberg multibeam vendor format
0012_20111107_231701_ShipName.all.mb58.gz 7.59MB Kongsberg multibeam vendor format
0013_20111107_234707_ShipName.all.mb58.gz 7.40MB Kongsberg multibeam vendor format
0014_20111108_001708_ShipName.all.mb58.gz 7.23MB Kongsberg multibeam vendor format
0015_20111108_004702_ShipName.all.mb58.gz 7.21MB Kongsberg multibeam vendor format
0016_20111108_011703_ShipName.all.mb58.gz 7.08MB Kongsberg multibeam vendor format
0017_20111108_014701_ShipName.all.mb58.gz 7.05MB Kongsberg multibeam vendor format
0018_20111108_021710_ShipName.all.mb58.gz 6.90MB Kongsberg multibeam vendor format
0019_20111108_024702_ShipName.all.mb58.gz 6.96MB Kongsberg multibeam vendor format
0020_20111108_031709_ShipName.all.mb58.gz 6.98MB Kongsberg multibeam vendor format
0021_20111108_034711_ShipName.all.mb58.gz 7.01MB Kongsberg multibeam vendor format
0022_20111108_041702_ShipName.all.mb58.gz 7.04MB Kongsberg multibeam vendor format
0023_20111108_044700_ShipName.all.mb58.gz 7.01MB Kongsberg multibeam vendor format
0024_20111108_051704_ShipName.all.mb58.gz 6.78MB Kongsberg multibeam vendor format
0025_20111108_054710_ShipName.all.mb58.gz 6.82MB Kongsberg multibeam vendor format
0026_20111108_061711_ShipName.all.mb58.gz 6.82MB Kongsberg multibeam vendor format
0027_20111108_064702_ShipName.all.mb58.gz 6.70MB Kongsberg multibeam vendor format
0028_20111108_071707_ShipName.all.mb58.gz 6.76MB Kongsberg multibeam vendor format
0029_20111108_074707_ShipName.all.mb58.gz 6.81MB Kongsberg multibeam vendor format
0030_20111108_081705_ShipName.all.mb58.gz 6.68MB Kongsberg multibeam vendor format
0031_20111108_084703_ShipName.all.mb58.gz 5.92MB Kongsberg multibeam vendor format
0032_20111108_091704_ShipName.all.mb58.gz 6.56MB Kongsberg multibeam vendor format
0033_20111108_094709_ShipName.all.mb58.gz 6.73MB Kongsberg multibeam vendor format
0034_20111108_101703_ShipName.all.mb58.gz 6.74MB Kongsberg multibeam vendor format
0035_20111108_104713_ShipName.all.mb58.gz 6.68MB Kongsberg multibeam vendor format
0036_20111108_111710_ShipName.all.mb58.gz 6.65MB Kongsberg multibeam vendor format
0037_20111108_114702_ShipName.all.mb58.gz 6.71MB Kongsberg multibeam vendor format
0038_20111108_121711_ShipName.all.mb58.gz 6.56MB Kongsberg multibeam vendor format
0039_20111108_124703_ShipName.all.mb58.gz 6.78MB Kongsberg multibeam vendor format
0040_20111108_131713_ShipName.all.mb58.gz 6.81MB Kongsberg multibeam vendor format
0041_20111108_134710_ShipName.all.mb58.gz 6.79MB Kongsberg multibeam vendor format
0042_20111108_141702_ShipName.all.mb58.gz 6.95MB Kongsberg multibeam vendor format
0043_20111108_144700_ShipName.all.mb58.gz 7.03MB Kongsberg multibeam vendor format
0044_20111108_151704_ShipName.all.mb58.gz 6.92MB Kongsberg multibeam vendor format
0045_20111108_154710_ShipName.all.mb58.gz 6.83MB Kongsberg multibeam vendor format
0046_20111108_161706_ShipName.all.mb58.gz 6.43MB Kongsberg multibeam vendor format
0047_20111108_164710_ShipName.all.mb58.gz 6.37MB Kongsberg multibeam vendor format
0048_20111108_171703_ShipName.all.mb58.gz 6.76MB Kongsberg multibeam vendor format
0049_20111108_174713_ShipName.all.mb58.gz 6.60MB Kongsberg multibeam vendor format
0050_20111108_181702_ShipName.all.mb58.gz 6.63MB Kongsberg multibeam vendor format
0051_20111108_184715_ShipName.all.mb58.gz 6.47MB Kongsberg multibeam vendor format
0052_20111108_191708_ShipName.all.mb58.gz 6.46MB Kongsberg multibeam vendor format
0053_20111108_194712_ShipName.all.mb58.gz 6.52MB Kongsberg multibeam vendor format
0054_20111108_201715_ShipName.all.mb58.gz 6.41MB Kongsberg multibeam vendor format
0055_20111108_204706_ShipName.all.mb58.gz 6.62MB Kongsberg multibeam vendor format
0056_20111108_211702_ShipName.all.mb58.gz 6.49MB Kongsberg multibeam vendor format
0057_20111108_214703_ShipName.all.mb58.gz 6.52MB Kongsberg multibeam vendor format
0058_20111108_221711_ShipName.all.mb58.gz 6.71MB Kongsberg multibeam vendor format
0059_20111108_224709_ShipName.all.mb58.gz 6.60MB Kongsberg multibeam vendor format
0060_20111108_231702_ShipName.all.mb58.gz 6.61MB Kongsberg multibeam vendor format
0061_20111108_234708_ShipName.all.mb58.gz 6.50MB Kongsberg multibeam vendor format
0062_20111109_001713_ShipName.all.mb58.gz 6.49MB Kongsberg multibeam vendor format
0063_20111109_004703_ShipName.all.mb58.gz 6.08MB Kongsberg multibeam vendor format
0064_20111109_011708_ShipName.all.mb58.gz 6.16MB Kongsberg multibeam vendor format
0065_20111109_014702_ShipName.all.mb58.gz 6.43MB Kongsberg multibeam vendor format
0066_20111109_021714_ShipName.all.mb58.gz 6.32MB Kongsberg multibeam vendor format
0067_20111109_024705_ShipName.all.mb58.gz 6.39MB Kongsberg multibeam vendor format
0068_20111109_031706_ShipName.all.mb58.gz 6.34MB Kongsberg multibeam vendor format
0069_20111109_034709_ShipName.all.mb58.gz 6.42MB Kongsberg multibeam vendor format
0070_20111109_041705_ShipName.all.mb58.gz 6.35MB Kongsberg multibeam vendor format
0071_20111109_044708_ShipName.all.mb58.gz 6.33MB Kongsberg multibeam vendor format
0072_20111109_051708_ShipName.all.mb58.gz 6.39MB Kongsberg multibeam vendor format
0073_20111109_054709_ShipName.all.mb58.gz 6.50MB Kongsberg multibeam vendor format
0074_20111109_061701_ShipName.all.mb58.gz 6.19MB Kongsberg multibeam vendor format
0075_20111109_064703_ShipName.all.mb58.gz 6.02MB Kongsberg multibeam vendor format
0076_20111109_071701_ShipName.all.mb58.gz 6.29MB Kongsberg multibeam vendor format
0077_20111109_074714_ShipName.all.mb58.gz 6.15MB Kongsberg multibeam vendor format
0078_20111109_081701_ShipName.all.mb58.gz 6.36MB Kongsberg multibeam vendor format
0079_20111109_084704_ShipName.all.mb58.gz 6.44MB Kongsberg multibeam vendor format
0080_20111109_091704_ShipName.all.mb58.gz 6.40MB Kongsberg multibeam vendor format
0081_20111109_094709_ShipName.all.mb58.gz 6.38MB Kongsberg multibeam vendor format
0082_20111109_101702_ShipName.all.mb58.gz 6.46MB Kongsberg multibeam vendor format
0083_20111109_104709_ShipName.all.mb58.gz 6.62MB Kongsberg multibeam vendor format
0084_20111109_111702_ShipName.all.mb58.gz 6.54MB Kongsberg multibeam vendor format
0085_20111109_114706_ShipName.all.mb58.gz 6.54MB Kongsberg multibeam vendor format
0086_20111109_121709_ShipName.all.mb58.gz 6.10MB Kongsberg multibeam vendor format
0087_20111109_124703_ShipName.all.mb58.gz 6.27MB Kongsberg multibeam vendor format
0088_20111109_131710_ShipName.all.mb58.gz 6.50MB Kongsberg multibeam vendor format
0089_20111109_134708_ShipName.all.mb58.gz 6.50MB Kongsberg multibeam vendor format
0090_20111109_141708_ShipName.all.mb58.gz 6.28MB Kongsberg multibeam vendor format
0091_20111109_144705_ShipName.all.mb58.gz 6.52MB Kongsberg multibeam vendor format
0092_20111109_151714_ShipName.all.mb58.gz 6.40MB Kongsberg multibeam vendor format
0093_20111109_154703_ShipName.all.mb58.gz 6.44MB Kongsberg multibeam vendor format
0094_20111109_161705_ShipName.all.mb58.gz 6.46MB Kongsberg multibeam vendor format
0095_20111109_164713_ShipName.all.mb58.gz 6.05MB Kongsberg multibeam vendor format
0096_20111109_171706_ShipName.all.mb58.gz 5.94MB Kongsberg multibeam vendor format
0097_20111109_174705_ShipName.all.mb58.gz 5.98MB Kongsberg multibeam vendor format
0098_20111109_181708_ShipName.all.mb58.gz 5.69MB Kongsberg multibeam vendor format
0099_20111109_184702_ShipName.all.mb58.gz 5.80MB Kongsberg multibeam vendor format
0100_20111109_191716_ShipName.all.mb58.gz 5.88MB Kongsberg multibeam vendor format
0101_20111109_194705_ShipName.all.mb58.gz 5.82MB Kongsberg multibeam vendor format
0102_20111109_201712_ShipName.all.mb58.gz 5.96MB Kongsberg multibeam vendor format
0103_20111109_204711_ShipName.all.mb58.gz 6.20MB Kongsberg multibeam vendor format
0104_20111109_211713_ShipName.all.mb58.gz 6.35MB Kongsberg multibeam vendor format
0105_20111109_214700_ShipName.all.mb58.gz 6.17MB Kongsberg multibeam vendor format
0106_20111109_221710_ShipName.all.mb58.gz 6.29MB Kongsberg multibeam vendor format
0107_20111109_224707_ShipName.all.mb58.gz 6.44MB Kongsberg multibeam vendor format
0108_20111109_231713_ShipName.all.mb58.gz 6.29MB Kongsberg multibeam vendor format
0109_20111109_234707_ShipName.all.mb58.gz 6.30MB Kongsberg multibeam vendor format
0110_20111110_001705_ShipName.all.mb58.gz 6.40MB Kongsberg multibeam vendor format
0111_20111110_004701_ShipName.all.mb58.gz 6.18MB Kongsberg multibeam vendor format
0112_20111110_011715_ShipName.all.mb58.gz 6.16MB Kongsberg multibeam vendor format
0113_20111110_014713_ShipName.all.mb58.gz 5.94MB Kongsberg multibeam vendor format
0114_20111110_021728_ShipName.all.mb58.gz 5.89MB Kongsberg multibeam vendor format
0115_20111110_024701_ShipName.all.mb58.gz 6.03MB Kongsberg multibeam vendor format
0116_20111110_031713_ShipName.all.mb58.gz 6.03MB Kongsberg multibeam vendor format
0117_20111110_034711_ShipName.all.mb58.gz 5.87MB Kongsberg multibeam vendor format
0118_20111110_041700_ShipName.all.mb58.gz 6.36MB Kongsberg multibeam vendor format
0119_20111110_044706_ShipName.all.mb58.gz 6.26MB Kongsberg multibeam vendor format
0120_20111110_051711_ShipName.all.mb58.gz 6.27MB Kongsberg multibeam vendor format
0121_20111110_054708_ShipName.all.mb58.gz 6.25MB Kongsberg multibeam vendor format
0122_20111110_061714_ShipName.all.mb58.gz 6.26MB Kongsberg multibeam vendor format
0123_20111110_064713_ShipName.all.mb58.gz 6.57MB Kongsberg multibeam vendor format
0124_20111110_071704_ShipName.all.mb58.gz 6.42MB Kongsberg multibeam vendor format
0125_20111110_074702_ShipName.all.mb58.gz 6.38MB Kongsberg multibeam vendor format
0126_20111110_081707_ShipName.all.mb58.gz 6.52MB Kongsberg multibeam vendor format
0127_20111110_084706_ShipName.all.mb58.gz 6.50MB Kongsberg multibeam vendor format
0128_20111110_091714_ShipName.all.mb58.gz 6.07MB Kongsberg multibeam vendor format
0129_20111110_094713_ShipName.all.mb58.gz 6.34MB Kongsberg multibeam vendor format
0130_20111110_101703_ShipName.all.mb58.gz 6.51MB Kongsberg multibeam vendor format
0131_20111110_104706_ShipName.all.mb58.gz 6.19MB Kongsberg multibeam vendor format
0132_20111110_111709_ShipName.all.mb58.gz 5.90MB Kongsberg multibeam vendor format
0133_20111110_114706_ShipName.all.mb58.gz 6.56MB Kongsberg multibeam vendor format
0134_20111110_121712_ShipName.all.mb58.gz 6.86MB Kongsberg multibeam vendor format
0135_20111110_124708_ShipName.all.mb58.gz 6.88MB Kongsberg multibeam vendor format
0136_20111110_131709_ShipName.all.mb58.gz 6.81MB Kongsberg multibeam vendor format
0137_20111110_134700_ShipName.all.mb58.gz 6.95MB Kongsberg multibeam vendor format
0138_20111110_141707_ShipName.all.mb58.gz 6.84MB Kongsberg multibeam vendor format
0139_20111110_144705_ShipName.all.mb58.gz 6.56MB Kongsberg multibeam vendor format
0140_20111110_151702_ShipName.all.mb58.gz 6.38MB Kongsberg multibeam vendor format
0141_20111110_154710_ShipName.all.mb58.gz 6.42MB Kongsberg multibeam vendor format
0142_20111110_161703_ShipName.all.mb58.gz 6.38MB Kongsberg multibeam vendor format
0143_20111110_164711_ShipName.all.mb58.gz 6.51MB Kongsberg multibeam vendor format
0144_20111110_171712_ShipName.all.mb58.gz 6.46MB Kongsberg multibeam vendor format
0145_20111110_174705_ShipName.all.mb58.gz 6.56MB Kongsberg multibeam vendor format
0146_20111110_181705_ShipName.all.mb58.gz 6.61MB Kongsberg multibeam vendor format
0147_20111110_184701_ShipName.all.mb58.gz 6.49MB Kongsberg multibeam vendor format
0148_20111110_191705_ShipName.all.mb58.gz 6.34MB Kongsberg multibeam vendor format
0149_20111110_194704_ShipName.all.mb58.gz 6.38MB Kongsberg multibeam vendor format
0150_20111110_201700_ShipName.all.mb58.gz 6.37MB Kongsberg multibeam vendor format
0151_20111110_204705_ShipName.all.mb58.gz 6.09MB Kongsberg multibeam vendor format
0152_20111110_211709_ShipName.all.mb58.gz 6.24MB Kongsberg multibeam vendor format
0153_20111110_214704_ShipName.all.mb58.gz 6.22MB Kongsberg multibeam vendor format
0154_20111110_221701_ShipName.all.mb58.gz 6.38MB Kongsberg multibeam vendor format
0155_20111110_224709_ShipName.all.mb58.gz 6.62MB Kongsberg multibeam vendor format
0156_20111110_231701_ShipName.all.mb58.gz 6.52MB Kongsberg multibeam vendor format
0157_20111110_234712_ShipName.all.mb58.gz 6.65MB Kongsberg multibeam vendor format
0158_20111111_001710_ShipName.all.mb58.gz 6.59MB Kongsberg multibeam vendor format
0159_20111111_004703_ShipName.all.mb58.gz 6.49MB Kongsberg multibeam vendor format
0160_20111111_011707_ShipName.all.mb58.gz 5.65MB Kongsberg multibeam vendor format
0161_20111111_014714_ShipName.all.mb58.gz 5.67MB Kongsberg multibeam vendor format
0162_20111111_021702_ShipName.all.mb58.gz 5.83MB Kongsberg multibeam vendor format
0163_20111111_024701_ShipName.all.mb58.gz 5.88MB Kongsberg multibeam vendor format
0164_20111111_031711_ShipName.all.mb58.gz 5.78MB Kongsberg multibeam vendor format
0165_20111111_034702_ShipName.all.mb58.gz 5.88MB Kongsberg multibeam vendor format
0166_20111111_041705_ShipName.all.mb58.gz 5.93MB Kongsberg multibeam vendor format
0167_20111111_044712_ShipName.all.mb58.gz 5.83MB Kongsberg multibeam vendor format
0168_20111111_051710_ShipName.all.mb58.gz 5.88MB Kongsberg multibeam vendor format
0169_20111111_054705_ShipName.all.mb58.gz 3.70MB Kongsberg multibeam vendor format
0170_20111111_060643_ShipName.all.mb58.gz 5.80MB Kongsberg multibeam vendor format
0171_20111111_063647_ShipName.all.mb58.gz 5.69MB Kongsberg multibeam vendor format
0172_20111111_070650_ShipName.all.mb58.gz 5.70MB Kongsberg multibeam vendor format
0173_20111111_073642_ShipName.all.mb58.gz 5.75MB Kongsberg multibeam vendor format
0174_20111111_080656_ShipName.all.mb58.gz 5.79MB Kongsberg multibeam vendor format
0175_20111111_083645_ShipName.all.mb58.gz 5.76MB Kongsberg multibeam vendor format
0176_20111111_090659_ShipName.all.mb58.gz 5.77MB Kongsberg multibeam vendor format
0177_20111111_093642_ShipName.all.mb58.gz 5.94MB Kongsberg multibeam vendor format
0178_20111111_100641_ShipName.all.mb58.gz 5.64MB Kongsberg multibeam vendor format
0179_20111111_103642_ShipName.all.mb58.gz 5.61MB Kongsberg multibeam vendor format
0180_20111111_110646_ShipName.all.mb58.gz 5.60MB Kongsberg multibeam vendor format
0181_20111111_113659_ShipName.all.mb58.gz 5.43MB Kongsberg multibeam vendor format
0182_20111111_120640_ShipName.all.mb58.gz 5.61MB Kongsberg multibeam vendor format
0183_20111111_123700_ShipName.all.mb58.gz 5.56MB Kongsberg multibeam vendor format
0184_20111111_130648_ShipName.all.mb58.gz 5.56MB Kongsberg multibeam vendor format
0185_20111111_133649_ShipName.all.mb58.gz 5.77MB Kongsberg multibeam vendor format
0186_20111111_140659_ShipName.all.mb58.gz 5.66MB Kongsberg multibeam vendor format
0187_20111111_143646_ShipName.all.mb58.gz 5.62MB Kongsberg multibeam vendor format
0188_20111111_150701_ShipName.all.mb58.gz 5.62MB Kongsberg multibeam vendor format
0189_20111111_153657_ShipName.all.mb58.gz 5.52MB Kongsberg multibeam vendor format
0190_20111111_160648_ShipName.all.mb58.gz 5.43MB Kongsberg multibeam vendor format
0191_20111111_163645_ShipName.all.mb58.gz 5.56MB Kongsberg multibeam vendor format
0192_20111111_170645_ShipName.all.mb58.gz 5.65MB Kongsberg multibeam vendor format
0193_20111111_173652_ShipName.all.mb58.gz 5.62MB Kongsberg multibeam vendor format
0194_20111111_180645_ShipName.all.mb58.gz 5.69MB Kongsberg multibeam vendor format
0195_20111111_183659_ShipName.all.mb58.gz 5.62MB Kongsberg multibeam vendor format
0196_20111111_190642_ShipName.all.mb58.gz 5.60MB Kongsberg multibeam vendor format
0197_20111111_193701_ShipName.all.mb58.gz 5.40MB Kongsberg multibeam vendor format
0198_20111111_200646_ShipName.all.mb58.gz 5.53MB Kongsberg multibeam vendor format
0199_20111111_203651_ShipName.all.mb58.gz 5.50MB Kongsberg multibeam vendor format
0200_20111111_210646_ShipName.all.mb58.gz 5.53MB Kongsberg multibeam vendor format
0201_20111111_213657_ShipName.all.mb58.gz 5.55MB Kongsberg multibeam vendor format
0202_20111111_220642_ShipName.all.mb58.gz 5.53MB Kongsberg multibeam vendor format
0203_20111111_223655_ShipName.all.mb58.gz 5.50MB Kongsberg multibeam vendor format
0204_20111111_230652_ShipName.all.mb58.gz 5.53MB Kongsberg multibeam vendor format
0205_20111111_233643_ShipName.all.mb58.gz 5.56MB Kongsberg multibeam vendor format
0206_20111112_000652_ShipName.all.mb58.gz 5.46MB Kongsberg multibeam vendor format
0207_20111112_003641_ShipName.all.mb58.gz 5.60MB Kongsberg multibeam vendor format
0208_20111112_010657_ShipName.all.mb58.gz 5.51MB Kongsberg multibeam vendor format
0209_20111112_013650_ShipName.all.mb58.gz 5.73MB Kongsberg multibeam vendor format
0210_20111112_020657_ShipName.all.mb58.gz 5.65MB Kongsberg multibeam vendor format
0211_20111112_023655_ShipName.all.mb58.gz 5.60MB Kongsberg multibeam vendor format
0212_20111112_030643_ShipName.all.mb58.gz 5.60MB Kongsberg multibeam vendor format
0213_20111112_033645_ShipName.all.mb58.gz 5.66MB Kongsberg multibeam vendor format
0214_20111112_040655_ShipName.all.mb58.gz 5.63MB Kongsberg multibeam vendor format
0215_20111112_043652_ShipName.all.mb58.gz 5.73MB Kongsberg multibeam vendor format
0216_20111112_050647_ShipName.all.mb58.gz 5.69MB Kongsberg multibeam vendor format
0217_20111112_053653_ShipName.all.mb58.gz 5.61MB Kongsberg multibeam vendor format
0218_20111112_060653_ShipName.all.mb58.gz 5.72MB Kongsberg multibeam vendor format
0219_20111112_063647_ShipName.all.mb58.gz 5.63MB Kongsberg multibeam vendor format
0220_20111112_070643_ShipName.all.mb58.gz 5.63MB Kongsberg multibeam vendor format
0221_20111112_073651_ShipName.all.mb58.gz 5.58MB Kongsberg multibeam vendor format
0222_20111112_080646_ShipName.all.mb58.gz 5.63MB Kongsberg multibeam vendor format
0223_20111112_083654_ShipName.all.mb58.gz 5.58MB Kongsberg multibeam vendor format
0224_20111112_090651_ShipName.all.mb58.gz 5.61MB Kongsberg multibeam vendor format
0225_20111112_093653_ShipName.all.mb58.gz 5.56MB Kongsberg multibeam vendor format
0226_20111112_100642_ShipName.all.mb58.gz 5.70MB Kongsberg multibeam vendor format
0227_20111112_103655_ShipName.all.mb58.gz 5.59MB Kongsberg multibeam vendor format
0228_20111112_110647_ShipName.all.mb58.gz 5.61MB Kongsberg multibeam vendor format
0229_20111112_113657_ShipName.all.mb58.gz 5.59MB Kongsberg multibeam vendor format
0230_20111112_120657_ShipName.all.mb58.gz 5.58MB Kongsberg multibeam vendor format
0231_20111112_123653_ShipName.all.mb58.gz 5.50MB Kongsberg multibeam vendor format
0232_20111112_130645_ShipName.all.mb58.gz 5.58MB Kongsberg multibeam vendor format
0233_20111112_133657_ShipName.all.mb58.gz 5.46MB Kongsberg multibeam vendor format
0234_20111112_140650_ShipName.all.mb58.gz 5.48MB Kongsberg multibeam vendor format
0235_20111112_143645_ShipName.all.mb58.gz 5.60MB Kongsberg multibeam vendor format
0236_20111112_150640_ShipName.all.mb58.gz 5.68MB Kongsberg multibeam vendor format
0237_20111112_153651_ShipName.all.mb58.gz 5.61MB Kongsberg multibeam vendor format
0238_20111112_160640_ShipName.all.mb58.gz 1.16MB Kongsberg multibeam vendor format
0239_20111112_162905_ShipName.all.mb58.gz 2.98MB Kongsberg multibeam vendor format
0240_20111125_040719_ShipName.all.mb58.gz 6.86MB Kongsberg multibeam vendor format
0241_20111125_043703_ShipName.all.mb58.gz 3.92MB Kongsberg multibeam vendor format
0242_20111202_121707_ShipName.all.mb58.gz 145.1KB Kongsberg multibeam vendor format
0243_20111202_131632_ShipName.all.mb58.gz 5.86MB Kongsberg multibeam vendor format
0244_20111202_134639_ShipName.all.mb58.gz 6.10MB Kongsberg multibeam vendor format
0245_20111202_141637_ShipName.all.mb58.gz 6.24MB Kongsberg multibeam vendor format
0246_20111202_144640_ShipName.all.mb58.gz 6.17MB Kongsberg multibeam vendor format
0247_20111202_151637_ShipName.all.mb58.gz 5.81MB Kongsberg multibeam vendor format
0248_20111202_154637_ShipName.all.mb58.gz 5.80MB Kongsberg multibeam vendor format
0249_20111202_161638_ShipName.all.mb58.gz 5.84MB Kongsberg multibeam vendor format
0250_20111202_164636_ShipName.all.mb58.gz 6.16MB Kongsberg multibeam vendor format
0251_20111202_171640_ShipName.all.mb58.gz 5.95MB Kongsberg multibeam vendor format
0252_20111202_174646_ShipName.all.mb58.gz 5.70MB Kongsberg multibeam vendor format
0253_20111202_181634_ShipName.all.mb58.gz 5.84MB Kongsberg multibeam vendor format
0254_20111202_184650_ShipName.all.mb58.gz 5.90MB Kongsberg multibeam vendor format
0255_20111202_191642_ShipName.all.mb58.gz 5.88MB Kongsberg multibeam vendor format
0256_20111202_194632_ShipName.all.mb58.gz 5.91MB Kongsberg multibeam vendor format
0257_20111202_201638_ShipName.all.mb58.gz 5.84MB Kongsberg multibeam vendor format
0258_20111202_204641_ShipName.all.mb58.gz 5.75MB Kongsberg multibeam vendor format
0259_20111202_211635_ShipName.all.mb58.gz 5.72MB Kongsberg multibeam vendor format
0260_20111202_214643_ShipName.all.mb58.gz 5.96MB Kongsberg multibeam vendor format
0261_20111202_221640_ShipName.all.mb58.gz 6.05MB Kongsberg multibeam vendor format
0262_20111202_224635_ShipName.all.mb58.gz 6.29MB Kongsberg multibeam vendor format
0263_20111202_231633_ShipName.all.mb58.gz 6.01MB Kongsberg multibeam vendor format
0264_20111202_234638_ShipName.all.mb58.gz 5.61MB Kongsberg multibeam vendor format
0265_20111203_001651_ShipName.all.mb58.gz 5.51MB Kongsberg multibeam vendor format
0266_20111203_004633_ShipName.all.mb58.gz 6.20MB Kongsberg multibeam vendor format
0267_20111203_011635_ShipName.all.mb58.gz 6.00MB Kongsberg multibeam vendor format
0268_20111203_014636_ShipName.all.mb58.gz 6.12MB Kongsberg multibeam vendor format
0269_20111203_021634_ShipName.all.mb58.gz 5.93MB Kongsberg multibeam vendor format
0270_20111203_024635_ShipName.all.mb58.gz 5.93MB Kongsberg multibeam vendor format
0271_20111203_031634_ShipName.all.mb58.gz 5.79MB Kongsberg multibeam vendor format
0272_20111203_034636_ShipName.all.mb58.gz 5.87MB Kongsberg multibeam vendor format
0273_20111203_041646_ShipName.all.mb58.gz 5.94MB Kongsberg multibeam vendor format
0274_20111203_044638_ShipName.all.mb58.gz 6.09MB Kongsberg multibeam vendor format
0275_20111203_051645_ShipName.all.mb58.gz 5.92MB Kongsberg multibeam vendor format
0276_20111203_054647_ShipName.all.mb58.gz 6.14MB Kongsberg multibeam vendor format
0277_20111203_061646_ShipName.all.mb58.gz 6.04MB Kongsberg multibeam vendor format
0278_20111203_064641_ShipName.all.mb58.gz 6.07MB Kongsberg multibeam vendor format
0279_20111203_071649_ShipName.all.mb58.gz 5.93MB Kongsberg multibeam vendor format
0280_20111203_074650_ShipName.all.mb58.gz 5.93MB Kongsberg multibeam vendor format
0281_20111203_081638_ShipName.all.mb58.gz 6.26MB Kongsberg multibeam vendor format
0282_20111203_084644_ShipName.all.mb58.gz 6.17MB Kongsberg multibeam vendor format
0283_20111203_091634_ShipName.all.mb58.gz 6.08MB Kongsberg multibeam vendor format
0284_20111203_094644_ShipName.all.mb58.gz 6.07MB Kongsberg multibeam vendor format
0285_20111203_101633_ShipName.all.mb58.gz 5.85MB Kongsberg multibeam vendor format
0286_20111203_104633_ShipName.all.mb58.gz 5.81MB Kongsberg multibeam vendor format
0287_20111203_111632_ShipName.all.mb58.gz 5.95MB Kongsberg multibeam vendor format
0288_20111203_114634_ShipName.all.mb58.gz 5.99MB Kongsberg multibeam vendor format
0289_20111203_121635_ShipName.all.mb58.gz 6.09MB Kongsberg multibeam vendor format
0290_20111203_124645_ShipName.all.mb58.gz 5.77MB Kongsberg multibeam vendor format
0291_20111203_131649_ShipName.all.mb58.gz 6.05MB Kongsberg multibeam vendor format
0292_20111203_134636_ShipName.all.mb58.gz 6.60MB Kongsberg multibeam vendor format
0293_20111203_141644_ShipName.all.mb58.gz 6.58MB Kongsberg multibeam vendor format
0294_20111203_144633_ShipName.all.mb58.gz 6.54MB Kongsberg multibeam vendor format
0295_20111203_151641_ShipName.all.mb58.gz 5.71MB Kongsberg multibeam vendor format
0296_20111203_154638_ShipName.all.mb58.gz 5.73MB Kongsberg multibeam vendor format
0297_20111203_161633_ShipName.all.mb58.gz 6.18MB Kongsberg multibeam vendor format
0298_20111203_164632_ShipName.all.mb58.gz 6.60MB Kongsberg multibeam vendor format
0299_20111203_171643_ShipName.all.mb58.gz 6.51MB Kongsberg multibeam vendor format
0300_20111203_174646_ShipName.all.mb58.gz 6.09MB Kongsberg multibeam vendor format
0301_20111203_181645_ShipName.all.mb58.gz 5.95MB Kongsberg multibeam vendor format
0302_20111203_184646_ShipName.all.mb58.gz 5.96MB Kongsberg multibeam vendor format
0303_20111203_191643_ShipName.all.mb58.gz 6.09MB Kongsberg multibeam vendor format
0304_20111203_194640_ShipName.all.mb58.gz 6.51MB Kongsberg multibeam vendor format
0305_20111203_201646_ShipName.all.mb58.gz 6.22MB Kongsberg multibeam vendor format
0306_20111203_204635_ShipName.all.mb58.gz 6.47MB Kongsberg multibeam vendor format
0307_20111203_211638_ShipName.all.mb58.gz 5.46MB Kongsberg multibeam vendor format
0308_20111203_214647_ShipName.all.mb58.gz 5.45MB Kongsberg multibeam vendor format
0309_20111203_221642_ShipName.all.mb58.gz 5.94MB Kongsberg multibeam vendor format
0310_20111203_224635_ShipName.all.mb58.gz 6.26MB Kongsberg multibeam vendor format
0311_20111203_231638_ShipName.all.mb58.gz 6.27MB Kongsberg multibeam vendor format
0312_20111203_234644_ShipName.all.mb58.gz 6.15MB Kongsberg multibeam vendor format
0313_20111204_001643_ShipName.all.mb58.gz 5.73MB Kongsberg multibeam vendor format
0314_20111204_004634_ShipName.all.mb58.gz 5.85MB Kongsberg multibeam vendor format
0315_20111204_011640_ShipName.all.mb58.gz 5.89MB Kongsberg multibeam vendor format
0316_20111204_014641_ShipName.all.mb58.gz 6.05MB Kongsberg multibeam vendor format
0317_20111204_021645_ShipName.all.mb58.gz 6.38MB Kongsberg multibeam vendor format
0318_20111204_024637_ShipName.all.mb58.gz 6.50MB Kongsberg multibeam vendor format
0319_20111204_031640_ShipName.all.mb58.gz 6.56MB Kongsberg multibeam vendor format
0320_20111204_034646_ShipName.all.mb58.gz 6.49MB Kongsberg multibeam vendor format
0321_20111204_041647_ShipName.all.mb58.gz 6.31MB Kongsberg multibeam vendor format
0322_20111204_044637_ShipName.all.mb58.gz 5.76MB Kongsberg multibeam vendor format
0323_20111204_051638_ShipName.all.mb58.gz 5.79MB Kongsberg multibeam vendor format
0324_20111204_054642_ShipName.all.mb58.gz 5.70MB Kongsberg multibeam vendor format
0325_20111204_061641_ShipName.all.mb58.gz 5.67MB Kongsberg multibeam vendor format
0326_20111204_064647_ShipName.all.mb58.gz 5.49MB Kongsberg multibeam vendor format
0327_20111204_071648_ShipName.all.mb58.gz 5.55MB Kongsberg multibeam vendor format
0328_20111204_074645_ShipName.all.mb58.gz 5.93MB Kongsberg multibeam vendor format
0329_20111204_081637_ShipName.all.mb58.gz 5.90MB Kongsberg multibeam vendor format
0330_20111204_084639_ShipName.all.mb58.gz 6.01MB Kongsberg multibeam vendor format
0331_20111204_091646_ShipName.all.mb58.gz 5.89MB Kongsberg multibeam vendor format
0332_20111204_094643_ShipName.all.mb58.gz 5.99MB Kongsberg multibeam vendor format
0333_20111204_101641_ShipName.all.mb58.gz 5.91MB Kongsberg multibeam vendor format
0334_20111204_104649_ShipName.all.mb58.gz 5.84MB Kongsberg multibeam vendor format
0335_20111204_111642_ShipName.all.mb58.gz 5.91MB Kongsberg multibeam vendor format
0336_20111204_114652_ShipName.all.mb58.gz 6.05MB Kongsberg multibeam vendor format
0337_20111204_121655_ShipName.all.mb58.gz 5.91MB Kongsberg multibeam vendor format
0338_20111204_124652_ShipName.all.mb58.gz 5.92MB Kongsberg multibeam vendor format
0339_20111204_131643_ShipName.all.mb58.gz 5.92MB Kongsberg multibeam vendor format
0340_20111204_134641_ShipName.all.mb58.gz 5.64MB Kongsberg multibeam vendor format
0341_20111204_141655_ShipName.all.mb58.gz 5.45MB Kongsberg multibeam vendor format
0342_20111204_144701_ShipName.all.mb58.gz 5.20MB Kongsberg multibeam vendor format
0343_20111204_151654_ShipName.all.mb58.gz 5.89MB Kongsberg multibeam vendor format
0344_20111204_154647_ShipName.all.mb58.gz 5.73MB Kongsberg multibeam vendor format
0345_20111204_161656_ShipName.all.mb58.gz 5.78MB Kongsberg multibeam vendor format
0346_20111204_164642_ShipName.all.mb58.gz 6.18MB Kongsberg multibeam vendor format
0347_20111204_171648_ShipName.all.mb58.gz 6.53MB Kongsberg multibeam vendor format
0348_20111204_174643_ShipName.all.mb58.gz 6.79MB Kongsberg multibeam vendor format
0349_20111204_181647_ShipName.all.mb58.gz 6.95MB Kongsberg multibeam vendor format
0350_20111204_184644_ShipName.all.mb58.gz 6.78MB Kongsberg multibeam vendor format
0351_20111204_191641_ShipName.all.mb58.gz 6.66MB Kongsberg multibeam vendor format
0352_20111204_194654_ShipName.all.mb58.gz 6.30MB Kongsberg multibeam vendor format
0353_20111204_201653_ShipName.all.mb58.gz 5.81MB Kongsberg multibeam vendor format
0354_20111204_204656_ShipName.all.mb58.gz 6.01MB Kongsberg multibeam vendor format
0355_20111204_211656_ShipName.all.mb58.gz 6.00MB Kongsberg multibeam vendor format
0356_20111204_214647_ShipName.all.mb58.gz 6.07MB Kongsberg multibeam vendor format
0357_20111204_221647_ShipName.all.mb58.gz 6.13MB Kongsberg multibeam vendor format
0358_20111204_224656_ShipName.all.mb58.gz 6.05MB Kongsberg multibeam vendor format
0359_20111204_231655_ShipName.all.mb58.gz 5.95MB Kongsberg multibeam vendor format
0360_20111204_234656_ShipName.all.mb58.gz 5.92MB Kongsberg multibeam vendor format
0361_20111205_001650_ShipName.all.mb58.gz 5.50MB Kongsberg multibeam vendor format
0362_20111205_004655_ShipName.all.mb58.gz 5.50MB Kongsberg multibeam vendor format
0363_20111205_011652_ShipName.all.mb58.gz 5.86MB Kongsberg multibeam vendor format
0364_20111205_014653_ShipName.all.mb58.gz 5.92MB Kongsberg multibeam vendor format
0365_20111205_021642_ShipName.all.mb58.gz 5.94MB Kongsberg multibeam vendor format
0366_20111205_024658_ShipName.all.mb58.gz 5.83MB Kongsberg multibeam vendor format
0367_20111205_031652_ShipName.all.mb58.gz 5.90MB Kongsberg multibeam vendor format
0368_20111205_034657_ShipName.all.mb58.gz 5.81MB Kongsberg multibeam vendor format
0369_20111205_041641_ShipName.all.mb58.gz 5.92MB Kongsberg multibeam vendor format
0370_20111205_044641_ShipName.all.mb58.gz 5.95MB Kongsberg multibeam vendor format
0371_20111205_051651_ShipName.all.mb58.gz 5.75MB Kongsberg multibeam vendor format
0372_20111205_054653_ShipName.all.mb58.gz 5.87MB Kongsberg multibeam vendor format
0373_20111205_061651_ShipName.all.mb58.gz 5.90MB Kongsberg multibeam vendor format
0374_20111205_064655_ShipName.all.mb58.gz 5.96MB Kongsberg multibeam vendor format
0375_20111205_071650_ShipName.all.mb58.gz 5.94MB Kongsberg multibeam vendor format
0376_20111205_074650_ShipName.all.mb58.gz 5.81MB Kongsberg multibeam vendor format
0377_20111205_081643_ShipName.all.mb58.gz 6.00MB Kongsberg multibeam vendor format
0378_20111205_084645_ShipName.all.mb58.gz 5.93MB Kongsberg multibeam vendor format
0379_20111205_091654_ShipName.all.mb58.gz 5.78MB Kongsberg multibeam vendor format
0380_20111205_094643_ShipName.all.mb58.gz 6.29MB Kongsberg multibeam vendor format
0381_20111205_101656_ShipName.all.mb58.gz 5.70MB Kongsberg multibeam vendor format
0382_20111205_104648_ShipName.all.mb58.gz 5.52MB Kongsberg multibeam vendor format
0383_20111205_111652_ShipName.all.mb58.gz 5.76MB Kongsberg multibeam vendor format
0384_20111205_114641_ShipName.all.mb58.gz 6.10MB Kongsberg multibeam vendor format
0385_20111205_121655_ShipName.all.mb58.gz 6.06MB Kongsberg multibeam vendor format
0386_20111205_124647_ShipName.all.mb58.gz 5.96MB Kongsberg multibeam vendor format
0387_20111205_131646_ShipName.all.mb58.gz 6.17MB Kongsberg multibeam vendor format
0388_20111205_134653_ShipName.all.mb58.gz 5.99MB Kongsberg multibeam vendor format
0389_20111205_141642_ShipName.all.mb58.gz 5.90MB Kongsberg multibeam vendor format
0390_20111205_144645_ShipName.all.mb58.gz 5.93MB Kongsberg multibeam vendor format
0391_20111205_151646_ShipName.all.mb58.gz 5.91MB Kongsberg multibeam vendor format
0392_20111205_154651_ShipName.all.mb58.gz 6.16MB Kongsberg multibeam vendor format
0393_20111205_161654_ShipName.all.mb58.gz 6.16MB Kongsberg multibeam vendor format
0394_20111205_164654_ShipName.all.mb58.gz 6.26MB Kongsberg multibeam vendor format
0395_20111205_171652_ShipName.all.mb58.gz 6.10MB Kongsberg multibeam vendor format
0396_20111205_174645_ShipName.all.mb58.gz 6.14MB Kongsberg multibeam vendor format
0397_20111205_181653_ShipName.all.mb58.gz 6.00MB Kongsberg multibeam vendor format
0398_20111205_184642_ShipName.all.mb58.gz 6.13MB Kongsberg multibeam vendor format
0399_20111205_191648_ShipName.all.mb58.gz 6.05MB Kongsberg multibeam vendor format
0400_20111205_194644_ShipName.all.mb58.gz 6.08MB Kongsberg multibeam vendor format
0401_20111205_201649_ShipName.all.mb58.gz 5.74MB Kongsberg multibeam vendor format
0402_20111205_204659_ShipName.all.mb58.gz 5.62MB Kongsberg multibeam vendor format
0403_20111205_211652_ShipName.all.mb58.gz 5.99MB Kongsberg multibeam vendor format
0404_20111205_214648_ShipName.all.mb58.gz 6.12MB Kongsberg multibeam vendor format
0405_20111205_221643_ShipName.all.mb58.gz 6.06MB Kongsberg multibeam vendor format
0406_20111205_224653_ShipName.all.mb58.gz 6.20MB Kongsberg multibeam vendor format
0407_20111205_231642_ShipName.all.mb58.gz 6.35MB Kongsberg multibeam vendor format
0408_20111205_234652_ShipName.all.mb58.gz 6.43MB Kongsberg multibeam vendor format
0409_20111206_001646_ShipName.all.mb58.gz 6.33MB Kongsberg multibeam vendor format
0410_20111206_004649_ShipName.all.mb58.gz 6.46MB Kongsberg multibeam vendor format
0411_20111206_011647_ShipName.all.mb58.gz 6.39MB Kongsberg multibeam vendor format
0412_20111206_014642_ShipName.all.mb58.gz 6.55MB Kongsberg multibeam vendor format
0413_20111206_021652_ShipName.all.mb58.gz 6.55MB Kongsberg multibeam vendor format
0414_20111206_024653_ShipName.all.mb58.gz 6.43MB Kongsberg multibeam vendor format
0415_20111206_031642_ShipName.all.mb58.gz 6.90MB Kongsberg multibeam vendor format
0416_20111206_034643_ShipName.all.mb58.gz 6.74MB Kongsberg multibeam vendor format
0417_20111206_041652_ShipName.all.mb58.gz 6.56MB Kongsberg multibeam vendor format
0418_20111206_044642_ShipName.all.mb58.gz 6.82MB Kongsberg multibeam vendor format
0419_20111206_051656_ShipName.all.mb58.gz 6.71MB Kongsberg multibeam vendor format
0420_20111206_054647_ShipName.all.mb58.gz 6.68MB Kongsberg multibeam vendor format
0421_20111206_061645_ShipName.all.mb58.gz 6.94MB Kongsberg multibeam vendor format
0422_20111206_064644_ShipName.all.mb58.gz 6.35MB Kongsberg multibeam vendor format
0423_20111206_071657_ShipName.all.mb58.gz 5.81MB Kongsberg multibeam vendor format
0424_20111206_074641_ShipName.all.mb58.gz 5.82MB Kongsberg multibeam vendor format
0425_20111206_081644_ShipName.all.mb58.gz 7.18MB Kongsberg multibeam vendor format
0426_20111206_084646_ShipName.all.mb58.gz 7.84MB Kongsberg multibeam vendor format
0427_20111206_091649_ShipName.all.mb58.gz 7.86MB Kongsberg multibeam vendor format
0428_20111206_094650_ShipName.all.mb58.gz 8.13MB Kongsberg multibeam vendor format
0429_20111206_101650_ShipName.all.mb58.gz 7.99MB Kongsberg multibeam vendor format
0430_20111206_104648_ShipName.all.mb58.gz 7.98MB Kongsberg multibeam vendor format
0431_20111206_111641_ShipName.all.mb58.gz 8.10MB Kongsberg multibeam vendor format
0432_20111206_114649_ShipName.all.mb58.gz 8.14MB Kongsberg multibeam vendor format
0433_20111206_121650_ShipName.all.mb58.gz 8.16MB Kongsberg multibeam vendor format
0434_20111206_124650_ShipName.all.mb58.gz 7.75MB Kongsberg multibeam vendor format
0435_20111206_131643_ShipName.all.mb58.gz 7.65MB Kongsberg multibeam vendor format
0436_20111206_134652_ShipName.all.mb58.gz 7.79MB Kongsberg multibeam vendor format
0437_20111206_141650_ShipName.all.mb58.gz 8.05MB Kongsberg multibeam vendor format
0438_20111206_144643_ShipName.all.mb58.gz 8.06MB Kongsberg multibeam vendor format
0439_20111206_151644_ShipName.all.mb58.gz 7.73MB Kongsberg multibeam vendor format
0440_20111206_154643_ShipName.all.mb58.gz 7.39MB Kongsberg multibeam vendor format
0441_20111206_161644_ShipName.all.mb58.gz 6.65MB Kongsberg multibeam vendor format
0442_20111206_164647_ShipName.all.mb58.gz 6.21MB Kongsberg multibeam vendor format
0443_20111206_171649_ShipName.all.mb58.gz 6.34MB Kongsberg multibeam vendor format
0444_20111206_174648_ShipName.all.mb58.gz 5.86MB Kongsberg multibeam vendor format
0445_20111206_181657_ShipName.all.mb58.gz 6.60MB Kongsberg multibeam vendor format
0446_20111206_184656_ShipName.all.mb58.gz 6.00MB Kongsberg multibeam vendor format
0447_20111206_191652_ShipName.all.mb58.gz 5.96MB Kongsberg multibeam vendor format
0448_20111206_194654_ShipName.all.mb58.gz 6.32MB Kongsberg multibeam vendor format
0449_20111206_201644_ShipName.all.mb58.gz 6.42MB Kongsberg multibeam vendor format
0450_20111206_204642_ShipName.all.mb58.gz 5.98MB Kongsberg multibeam vendor format
0451_20111206_211648_ShipName.all.mb58.gz 6.32MB Kongsberg multibeam vendor format
0452_20111206_214646_ShipName.all.mb58.gz 6.51MB Kongsberg multibeam vendor format
0453_20111206_221652_ShipName.all.mb58.gz 6.33MB Kongsberg multibeam vendor format
0454_20111206_224645_ShipName.all.mb58.gz 7.39MB Kongsberg multibeam vendor format
0455_20111206_231651_ShipName.all.mb58.gz 7.85MB Kongsberg multibeam vendor format
0456_20111206_234651_ShipName.all.mb58.gz 7.90MB Kongsberg multibeam vendor format
0457_20111207_001645_ShipName.all.mb58.gz 7.99MB Kongsberg multibeam vendor format
0458_20111207_004645_ShipName.all.mb58.gz 8.01MB Kongsberg multibeam vendor format
0459_20111207_011641_ShipName.all.mb58.gz 8.05MB Kongsberg multibeam vendor format
0460_20111207_014650_ShipName.all.mb58.gz 8.07MB Kongsberg multibeam vendor format
0461_20111207_021645_ShipName.all.mb58.gz 7.98MB Kongsberg multibeam vendor format
0462_20111207_024647_ShipName.all.mb58.gz 7.93MB Kongsberg multibeam vendor format
0463_20111207_031646_ShipName.all.mb58.gz 8.00MB Kongsberg multibeam vendor format
0464_20111207_034645_ShipName.all.mb58.gz 8.07MB Kongsberg multibeam vendor format
0465_20111207_041642_ShipName.all.mb58.gz 7.93MB Kongsberg multibeam vendor format
0466_20111207_044646_ShipName.all.mb58.gz 8.00MB Kongsberg multibeam vendor format
0467_20111207_051652_ShipName.all.mb58.gz 7.44MB Kongsberg multibeam vendor format
0468_20111207_054649_ShipName.all.mb58.gz 6.48MB Kongsberg multibeam vendor format
0469_20111207_061643_ShipName.all.mb58.gz 6.65MB Kongsberg multibeam vendor format
0470_20111207_064647_ShipName.all.mb58.gz 6.68MB Kongsberg multibeam vendor format
0471_20111207_071653_ShipName.all.mb58.gz 5.69MB Kongsberg multibeam vendor format
0472_20111207_074655_ShipName.all.mb58.gz 6.58MB Kongsberg multibeam vendor format
0473_20111207_081642_ShipName.all.mb58.gz 6.96MB Kongsberg multibeam vendor format
0474_20111207_084647_ShipName.all.mb58.gz 7.80MB Kongsberg multibeam vendor format
0475_20111207_091646_ShipName.all.mb58.gz 8.17MB Kongsberg multibeam vendor format
0476_20111207_094647_ShipName.all.mb58.gz 8.55MB Kongsberg multibeam vendor format
0477_20111207_101648_ShipName.all.mb58.gz 12.13MB Kongsberg multibeam vendor format
0478_20111207_104646_ShipName.all.mb58.gz 12.03MB Kongsberg multibeam vendor format
0479_20111207_111644_ShipName.all.mb58.gz 12.12MB Kongsberg multibeam vendor format
0480_20111207_114647_ShipName.all.mb58.gz 12.92MB Kongsberg multibeam vendor format
0481_20111207_121645_ShipName.all.mb58.gz 13.64MB Kongsberg multibeam vendor format
0482_20111207_124641_ShipName.all.mb58.gz 13.82MB Kongsberg multibeam vendor format
0483_20111207_131646_ShipName.all.mb58.gz 13.71MB Kongsberg multibeam vendor format
0484_20111207_134644_ShipName.all.mb58.gz 13.57MB Kongsberg multibeam vendor format
0485_20111207_141648_ShipName.all.mb58.gz 13.32MB Kongsberg multibeam vendor format
0486_20111207_144643_ShipName.all.mb58.gz 13.40MB Kongsberg multibeam vendor format
0487_20111207_151643_ShipName.all.mb58.gz 13.01MB Kongsberg multibeam vendor format
0488_20111207_154645_ShipName.all.mb58.gz 10.10MB Kongsberg multibeam vendor format
0489_20111207_161650_ShipName.all.mb58.gz 8.61MB Kongsberg multibeam vendor format
0490_20111207_164649_ShipName.all.mb58.gz 8.10MB Kongsberg multibeam vendor format
0491_20111207_171645_ShipName.all.mb58.gz 7.64MB Kongsberg multibeam vendor format
0492_20111207_174650_ShipName.all.mb58.gz 7.90MB Kongsberg multibeam vendor format
0493_20111207_181641_ShipName.all.mb58.gz 8.24MB Kongsberg multibeam vendor format
0494_20111207_184647_ShipName.all.mb58.gz 8.13MB Kongsberg multibeam vendor format
0495_20111207_191649_ShipName.all.mb58.gz 8.13MB Kongsberg multibeam vendor format
0496_20111207_194642_ShipName.all.mb58.gz 8.01MB Kongsberg multibeam vendor format
0497_20111207_201651_ShipName.all.mb58.gz 8.31MB Kongsberg multibeam vendor format
0498_20111207_204646_ShipName.all.mb58.gz 10.48MB Kongsberg multibeam vendor format
0499_20111207_211644_ShipName.all.mb58.gz 13.47MB Kongsberg multibeam vendor format
0500_20111207_214642_ShipName.all.mb58.gz 13.71MB Kongsberg multibeam vendor format
0501_20111207_221646_ShipName.all.mb58.gz 13.86MB Kongsberg multibeam vendor format
0502_20111207_224648_ShipName.all.mb58.gz 13.47MB Kongsberg multibeam vendor format
0503_20111207_231642_ShipName.all.mb58.gz 12.82MB Kongsberg multibeam vendor format
0504_20111207_234648_ShipName.all.mb58.gz 11.43MB Kongsberg multibeam vendor format
0505_20111208_001641_ShipName.all.mb58.gz 8.01MB Kongsberg multibeam vendor format
0506_20111208_004645_ShipName.all.mb58.gz 7.59MB Kongsberg multibeam vendor format
0507_20111208_011645_ShipName.all.mb58.gz 7.11MB Kongsberg multibeam vendor format
0508_20111208_014650_ShipName.all.mb58.gz 6.87MB Kongsberg multibeam vendor format
0509_20111208_021647_ShipName.all.mb58.gz 6.65MB Kongsberg multibeam vendor format
0510_20111208_024647_ShipName.all.mb58.gz 6.73MB Kongsberg multibeam vendor format
0511_20111208_031650_ShipName.all.mb58.gz 6.35MB Kongsberg multibeam vendor format
0512_20111208_034653_ShipName.all.mb58.gz 6.22MB Kongsberg multibeam vendor format
0513_20111208_041647_ShipName.all.mb58.gz 6.24MB Kongsberg multibeam vendor format
0514_20111208_044645_ShipName.all.mb58.gz 6.33MB Kongsberg multibeam vendor format
0515_20111208_051644_ShipName.all.mb58.gz 6.24MB Kongsberg multibeam vendor format
0516_20111208_054646_ShipName.all.mb58.gz 6.34MB Kongsberg multibeam vendor format
0517_20111208_061647_ShipName.all.mb58.gz 6.20MB Kongsberg multibeam vendor format
0518_20111208_064642_ShipName.all.mb58.gz 6.19MB Kongsberg multibeam vendor format
0519_20111208_071655_ShipName.all.mb58.gz 6.09MB Kongsberg multibeam vendor format
0520_20111208_074643_ShipName.all.mb58.gz 6.03MB Kongsberg multibeam vendor format
0521_20111208_081646_ShipName.all.mb58.gz 1.92MB Kongsberg multibeam vendor format

Metadata Files: 2

Files File Size Description
RR1116_Multibeam.xml NGDC created ISO metadata
xbt_bag_info.tar.gz 4.6KB Additional cruise information

Ancillary Files: 1

Files File Size Description
xbt.tar.gz 1.48MB Expendable Bathythermograph (XBT) data